Regional Weather Roundup
Issued by NWS New Orleans/Baton Rouge, LA

Home | Current Version | Previous Version | Graphics & Text | Print | Product List | Glossary On
Versions: 1 2 3 4 5 6 7 8 9 10 11 12 13 14 15 16 17 18 19 20 21 22 23 24 25 26 27 28 29 30 31 32 33 34 35 36 37 38 39 40 41 42 43 44 45 46 47 48 49 50
738
ASUS44 KLIX 160910
RWRLIX
NEW ORLEANS REGIONAL WEATHER ROUNDUP
NATIONAL WEATHER SERVICE NEW ORLEANS LA
400 AM CDT TUE SEP 16 2014

NOTE: "FAIR" INDICATES FEW OR NO CLOUDS BELOW 12,000 FEET WITH NO
      SIGNIFICANT WEATHER AND/OR OBSTRUCTIONS TO VISIBILITY.
      SKY/WX - SKY CONDITION AND SIGNIFICANT WEATHER.
      TMP - AIR TEMPERATURE.     DP    - DEWPOINT TEMPERATURE.
      RH  - RELATIVE HUMIDITY.   PRES  - PRESSURE.
      HI  - HEAT INDEX.          WCI   - WIND CHILL INDEX.

*  THESE STATIONS ARE NOT NWS OR FAA STATIONS AND ARE NOT UNDER
   NWS QUALITY CONTROL.

LAZ038-040-048-061>063-065>067-069-161000-
SOUTHEAST LOUISIANA

CITY           SKY/WX    TMP DP  RH WIND       PRES   REMARKS
N.O. AUDUBON     N/A     79  76  91 MISG        N/A
N.O. INTL ARPT PTCLDY    77  74  90 CALM      30.05F
N.O. LAKEFRONT PTCLDY    81  76  84 W6        30.06F
N.O. DOWNTOWN*   N/A     81  72  74 CALM      30.06F
SLIDELL        CLEAR     74  72  93 CALM      30.05F
BATON ROUGE    PTCLDY    74  73  97 CALM      30.06F
BOOTHVILLE     LGT RAIN  79  73  82 NW9       30.05F
BELLE CHASSE   CLEAR     75  72  90 CALM      30.05F
BOGALUSA*        N/A     75  72  89 CALM      30.08S FOG
GALLIANO*      NOT AVBL
NEW ROADS*       N/A     74  73  98 CALM      30.06F
GONZALES*        N/A     74  74 100 CALM      30.05F FOG
HAMMOND*       PTCLDY    75  72  88 CALM      30.07S
HOUMA*         CLEAR     75  72  90 CALM      30.06F
PORT FOURCHON* MOSUNNY   82  77  83 SW5       30.08F

$$

MSZ070-080>082-161000-
SOUTHERN MISSISSIPPI

CITY           SKY/WX    TMP DP  RH WIND       PRES   REMARKS
MCCOMB         PTCLDY    76  74  93 CALM      30.08S
GULFPORT       CLEAR     75  73  93 NW5       30.04F
BILOXI         PTCLDY    76  75  96 NW3       30.05F
PASCAGOULA     PTCLDY    73  73 100 W3        30.04F

$$

COASTAL OBSERVATIONS
LAKE AND NEARSHORE STATIONS

STATION/POSITION TIME  TEMP    WIND        PRES    WAVE
                       AIR SEA DIR/SP/G            HT/PER
                 (UTC) (F)     (DEG/KT/KT) (MB)    (FT/S)
PASCAGOULA       0900   78     340/  2/  3 1016.7
WAVELAND YACHT   0900   76     310/  3/  4 1016.9
GRAND ISLE       0900   83 86  270/  5/  8 1018.3
SOUTHWEST PASS   0900   83 90  210/  7/ 12 1017.9
NEW CANAL        0900   80 82  250/  2/  3 1018.1
SHELL BEACH      0900   80 80  280/  5/  6 1017.5

OFFSHORE STATIONS

STATION/POSITION TIME  TEMP    WIND        PRES    WAVE
                       AIR SEA DIR/SP/G            HT/PER
                 (UTC) (F)     (DEG/KT/KT) (MB)    (FT/S)
64 S DAUPHIN ISL 0754   80 85  240/ 12/ 16 1018.3    3/ 6

$$




USA.gov is the U.S. government's official web portal to all federal, state and local government web resources and services.